This is the latest recevied weather packets stored in our database for station/object WA1NHP. If no packets are shown the sender has not sent any weather packets the latest 10 day(s).
| Time | Temp. | Humidity | Pressure | Rain* | Wind** | Luminosity | Snow |
|---|---|---|---|---|---|---|---|
| 1788371644 | 20° C | 86% | 1023.9 hPa | 0 mm | - | 406 W/m² | - |
| 1788371044 | 19.44° C | 86% | 1023.9 hPa | 0 mm | - | 255 W/m² | - |
| 1788370443 | 19.44° C | 85% | 1023.9 hPa | 0 mm | - | 264 W/m² | - |
| 1788369843 | 19.44° C | 86% | 1023.9 hPa | 0 mm | - | 359 W/m² | - |
| 1788369244 | 18.89° C | 88% | 1023.9 hPa | 0 mm | - | 287 W/m² | - |
| 1788368643 | 18.89° C | 88% | 1023.9 hPa | 0 mm | - | 229 W/m² | - |
| 1788368044 | 19.44° C | 87% | 1023.9 hPa | 0 mm | - | 200 W/m² | - |
| 1788367443 | 19.44° C | 86% | 1023.9 hPa | 0 mm | - | 283 W/m² | - |
| 1788366844 | 18.89° C | 85% | 1023.9 hPa | 0 mm | - | 378 W/m² | - |
| 1788366243 | 19.44° C | 86% | 1023.9 hPa | 0 mm | - | 323 W/m² | - |
| 1788365643 | 18.89° C | 87% | 1023.9 hPa | 0 mm | - | 369 W/m² | - |
| 1788365043 | 18.33° C | 88% | 1023.9 hPa | 0 mm | - | 269 W/m² | - |
| 1788364444 | 18.33° C | 87% | 1023.9 hPa | 0 mm | - | 232 W/m² | - |
| 1788363843 | 18.33° C | 89% | 1023.9 hPa | 0 mm | - | 253 W/m² | - |
| 1788363251 | 17.78° C | 89% | 1023.9 hPa | 0 mm | - | 193 W/m² | - |
| 1788362644 | 17.78° C | 90% | 1023.9 hPa | 0 mm | - | 199 W/m² | - |
| 1788362044 | 17.78° C | 90% | 1023.9 hPa | 0 mm | - | 186 W/m² | - |
| 1788361443 | 17.78° C | 89% | 1023.9 hPa | 0 mm | - | 186 W/m² | - |
| 1788360843 | 17.78° C | 90% | 1023.9 hPa | 0 mm | - | 239 W/m² | - |
| 1788360243 | 17.78° C | 89% | 1023.9 hPa | 0 mm | - | 225 W/m² | - |
| 1788359644 | 17.78° C | 91% | 1023.9 hPa | 0 mm | - | 278 W/m² | - |
| 1788359044 | 17.78° C | 91% | 1023.9 hPa | 0 mm | - | 223 W/m² | - |
| 1788358444 | 17.22° C | 91% | 1023.9 hPa | 0 mm | - | 206 W/m² | - |
| 1788357843 | 17.22° C | 93% | 1023.9 hPa | 0 mm | - | 193 W/m² | - |
| 1788357243 | 17.22° C | 93% | 1023.9 hPa | 0 mm | - | 163 W/m² | - |
* Rain latest hour (hover to see other rain measurements)
** Current wind speed in m/s (hover to see current wind gust speed)